sat.trackr.live / text

‹ back to catalog

FLOCK 4G-27

NORAD 62641 · 2025-009AJ

PAYLOAD ACTIVE UNKNOWN

§ Identity

Operator
Country
US
Launch date
2025-01-14
Launch site
AFWTR
Launch vehicle
Mass (kg)
RCS (m²)

Purposes: earth_obs

External: N2YO · Heavens-Above · Gunter

§ Orbital elements

Epoch: 2026-05-25T04:10:55.339104Z

Period
94.19 min
Inclination
97.3934°
Eccentricity
0.0003056
Mean motion
15.28780832 rev/d
Perigee alt
477.4 km
Apogee alt
481.6 km
Semi-major
6,857.6 km
B*
3.8334e-4
RAAN
226.7100°
Arg perigee
63.7769°
Mean anomaly
296.3785°
Rev number
7,538

§ Raw data

FLOCK 4G-271 62641U 25009AJ  26145.17425161  .00010654  00000+0  38334-3 0  99992 62641  97.3934 226.7100 0003056  63.7769 296.3785 15.28780832 75383

JSON: /api/v1/satellites/62641 · /tle

For live sub-satellite position, see the globe view (requires WebGL).

§ Visibility from observer

Set your observer location to see the next 7 days of passes ≥ 10°. The values pass through the URL so the page stays shareable.

No JS? Fill the form by hand. The geolocation button needs JavaScript.